Location: Rockford
(40.2514°N, 96.6004°W)
Time: 09:33:30
(UTC+00:00)

LightSail 2 - Pass Details

Date: 24 September 2019
Orbit: 707 x 722 km, 24.0° (Epoch: 17 October)

Event Time Altitude Azimuth Distance (km) Brightness Sun altitude
Exits shadow 10:16:55 10° 172° (S) 2,142 7.5 -23.0°
Maximum altitude 10:17:02 10° 171° (S) 2,141 7.5 -23.0°
Drops below altitude 10° 10:17:47 10° 162° (SSE) 2,161 7.6 -22.9°
Sets 10:22:40 0° 121° (ESE) 3,081 9.0 -22.0°
